CAPE
0 0 0 0 102 0 24 57 48 106 404 109 81 18 45 79 97 71 57 64 76 154 126 115 403 434 265 51 50 0 120 287 144 219 264 93 136 179 219 288 137 28 22 194
0 0 0 0 0 2 14 42 54 139 489 119 53 24 16 71 52 77 50 28 54 104 77 80 312 379 241 124 75 0 250 457 383 407 404 134 101 189 282 282 258 208 315 90
0 0 0 0 0 38 46 40 74 53 377 253 91 39 17 39 67 68 75 56 51 68 73 105 118 324 176 166 108 22 142 564 408 517 320 232 295 208 322 239 451 581 623 479
0 0 0 0 1 0 38 134 139 297 119 44 106 20 62 18 12 40 52 27 19 59 84 74 55 202 225 172 214 86 132 581 478 581 306 290 230 430 148 165 277 729 733 480
0 0 0 0 2 29 22 149 132 158 122 86 141 67 19 75 9 4 29 51 14 80 66 77 78 67 31 135 281 184 247 519 365 668 438 443 176 480 404 352 400 755 616 503
0 0 0 0 3 19 60 92 115 83 105 29 10 102 0 70 47 23 13 8 32 64 84 45 93 89 65 74 207 309 320 298 191 568 516 463 457 399 365 393 668 713 600 512
0 0 0 0 0 8 49 92 65 41 62 16 12 166 31 16 71 119 139 43 6 4 125 83 65 85 99 155 166 261 323 326 152 305 509 463 328 361 292 477 466 680 582 634
0 0 0 0 0 0 60 87 0 0 0 0 0 0 0 79 102 224 96 82 28 19 49 101 105 70 101 158 183 176 205 286 214 364 474 508 389 332 361 398 456 563 633 600
0 0 0 0 0 0 0 0 0 0 1 10 1 0 2 136 119 90 169 106 93 47 51 102 136 104 130 104 180 196 244 295 205 334 454 439 465 395 278 197 409 504 588 624
0 0 0 0 0 0 0 0 0 14 0 3 2 0 0 13 39 114 58 49 37 20 18 48 100 126 130 130 129 247 236 242 189 311 473 475 466 425 395 401 354 449 380 616
0 0 0 0 0 0 0 0 0 0 2 0 0 0 4 0 0 72 32 68 68 96 9 16 41 103 158 127 251 299 298 265 174 185 368 425 390 399 372 379 392 356 370 541
0 0 0 0 0 0 0 0 0 0 0 0 0 0 32 55 0 76 230 180 155 88 3 2 10 56 105 208 210 276 344 298 258 203 284 266 249 230 261 259 322 331 451 464
0 0 0 3 0 0 0 0 0 0 0 0 0 0 41 76 17 50 87 178 143 123 40 44 23 22 56 116 126 190 339 436 388 279 264 292 292 235 185 203 194 393 589 694
0 0 0 0 0 0 0 0 0 0 0 0 0 0 0 71 26 21 227 130 48 83 143 140 69 21 46 85 100 175 209 426 382 216 211 300 300 252 273 196 179 246 452 661
0 0 0 0 0 0 0 0 0 0 0 0 0 0 0 4 18 0 16 140 36 35 58 49 148 171 180 165 108 98 122 387 403 247 233 264 337 330 334 273 237 340 303 447
0 0 0 0 0 0 0 0 0 0 0 0 0 0 0 3 43 18 95 153 131 64 75 175 130 100 133 149 170 178 76 268 441 228 324 286 413 258 289 327 324 331 360 375
0 0 0 0 0 0 0 0 0 0 0 0 0 0 43 0 0 14 4 0 0 207 394 362 317 244 204 136 183 138 270 154 495 605 420 322 346 382 401 330 301 288 299 322
0 0 0 0 0 0 0 0 0 0 24 17 11 19 49 2 8 25 13 0 0 24 148 247 142 56 39 56 233 164 189 229 459 542 503 415 389 446 436 350 359 337 349 361
0 0 0 0 0 0 0 0 2 8 27 54 13 13 0 70 27 0 7 0 0 0 11 263 80 11 42 117 316 344 147 167 285 496 520 526 515 420 368 329 378 448 475 435
0 0 0 0 0 0 0 0 0 17 0 43 76 42 29 24 0 0 86 94 114 299 242 144 49 15 72 276 453 497 185 146 105 156 320 255 179 142 211 300 379 359 348 371
0 0 0 0 0 0 0 0 17 0 0 57 82 23 7 0 0 0 149 181 178 111 75 45 0 19 65 300 673 688 312 173 145 175 466 221 155 98 70 57 101 229 272 200
0 0 0 0 0 0 0 0 4 0 0 70 57 2 0 0 0 0 0 0 76 55 0 0 0 25 424 243 601 854 479 290 162 136 79 165 163 101 88 38 32 49 75 153
0 0 0 0 0 0 0 8 5 1 14 54 0 0 0 0 0 0 0 23 86 0 0 0 18 40 128 358 770 616 558 250 120 137 52 14 2 20 19 29 71 30 48 77
0 0 0 0 0 0 2 17 0 0 0 0 0 0 0 0 0 0 0 12 13 0 0 0 18 70 107 629 654 343 700 242 207 187 127 65 18 0 0 2 28 20 37 63
0 0 0 0 0 0 0 0 0 0 1 3 29 30 15 20 0 0 0 45 11 0 0 0 25 107 210 762 507 406 539 376 351 197 58 5 9 11 11 17 24 39 66 58
0 0 0 0 0 0 0 7 0 0 36 9 0 2 0 0 0 0 0 7 19 0 0 0 8 109 247 547 595 372 242 105 92 48 39 41 17 26 25 44 36 15 25 5
CIN
0 0 0 -1 -94 0 -154 -118 -122 -136 -110 -117 -90 -100 -51 -61 -60 -35 -42 -49 -55 -61 -80 -129 -132 -75 -72 -55 -27 0 -76 -75 -75 -75 -134 -126 -62 -23 -22 -67 -121 -248 -123 -35
0 0 0 0 -30 -1 -10 -167 -119 -111 -86 -117 -144 -123 -108 -41 -36 -92 -92 -48 -15 -26 -82 -34 -138 -83 -82 -52 -33 0 -69 -76 -69 -58 -75 -74 -33 -48 -47 -60 -60 -108 -40 -46
0 0 0 0 0 -139 -84 -9 -165 -78 -104 -100 -109 -86 -83 -96 -72 -61 -93 -50 -25 -36 -41 -76 -88 -92 -83 -67 -156 -46 -79 -61 -98 -70 -34 -88 -109 -71 -47 -51 -36 -47 -67 -43
0 0 0 0 -1 0 -142 -95 -136 -127 -61 -25 -144 -22 -47 -27 -119 -129 -153 -114 -74 -93 -49 -68 -26 -82 -80 -123 -131 -57 -51 -61 -76 -58 -40 -70 -60 -62 -145 -71 -155 -40 -56 -43
0 0 0 0 -2 -197 -118 -172 -80 -100 -55 -39 -123 -60 -86 -131 -38 -116 -128 -100 -69 -91 -22 -57 -46 -45 -14 -155 -89 -123 -89 -48 -64 -43 -50 -41 -85 -43 -46 -118 -96 -36 -36 -59
0 0 0 0 -79 -134 -141 -91 -25 -91 -64 -25 -49 -74 0 -55 -85 -18 -14 -113 -101 -146 -118 -64 -63 -47 -33 -152 -96 -73 -62 -60 -85 -27 -53 -47 -35 -24 -87 -47 -35 -37 -33 -52
0 0 0 0 0 -40 -86 -42 -21 -34 -38 -17 -66 -80 -52 -116 -111 -87 -104 -86 -21 -213 -127 -133 -119 -91 -48 -230 -151 -74 -58 -30 -85 -82 -57 -33 -45 -29 -83 -43 -75 -32 -31 -28
0 0 0 0 0 0 -64 -19 0 0 0 0 0 0 0 -110 -126 -92 -113 -151 -99 -12 -222 -106 -148 -109 -56 -248 -205 -160 -123 -72 -37 -98 -60 -39 -32 -35 -28 -36 -40 -58 -37 -33
0 0 0 0 0 0 0 0 0 0 -11 -23 -12 0 -7 -165 -136 -83 -49 -41 -48 -15 -305 -223 -146 -108 -73 -230 -248 -176 -132 -77 -138 -126 -60 -51 -37 -28 -32 -41 -53 -40 -51 -45
0 0 0 0 0 0 0 0 0 -16 -1 -7 -16 0 0 -125 -170 -124 -84 -96 -108 -57 -271 -219 -143 -116 -72 -242 -201 -220 -163 -113 -71 -146 -87 -49 -43 -46 -44 -48 -52 -45 -50 -45
-2 0 0 0 0 0 0 0 0 -6 -10 0 0 0 -29 0 0 -78 -249 -156 -89 -72 -86 -259 -190 -176 -117 -80 -155 -168 -196 -158 -125 -152 -120 -79 -52 -36 -36 -61 -47 -41 -33 -169
0 0 0 0 0 0 0 0 0 0 0 0 0 0 -27 -148 0 -236 -73 -107 -141 -76 -87 -104 -141 -128 -124 -90 -59 -135 -124 -139 -120 -148 -190 -132 -85 -91 -66 -79 -60 -175 -175 -183
0 0 0 -1 0 0 -2 0 0 0 0 0 0 0 -66 -101 -253 -216 -261 -72 -73 -60 -138 -50 -3 -116 -139 -112 -141 -223 -203 -179 -103 -85 -52 -154 -95 -80 -128 -115 -97 -162 -142 -47
0 0 0 0 0 0 0 0 0 0 0 0 0 0 0 -97 -148 -351 -274 -198 -109 -38 -81 -138 -200 -69 -164 -170 -328 -277 -211 -241 -165 -141 -173 -169 -86 -198 -117 -156 -119 -79 -137 -32
0 0 0 0 0 0 0 0 0 -1 0 0 0 0 0 -35 -101 0 -358 -252 -142 -77 -27 -42 -53 -64 -143 -204 -256 -190 -190 -218 -184 -211 -193 -140 -77 -194 -201 -115 -118 -60 -92 -96
0 0 0 0 0 0 0 0 0 0 0 0 0 0 -5 -18 -117 -164 -367 -233 -122 -122 -211 -204 -170 -200 -186 -154 -178 -147 -202 -176 -117 -220 -223 -239 -62 -136 -119 -180 -90 -63 -45 -103
0 0 0 0 0 0 0 0 0 0 0 0 0 0 -365 0 -32 -252 -75 0 0 -221 -132 -130 -112 -78 -57 -139 -179 -243 -144 -94 -77 -95 -142 -187 -156 -77 -67 -54 -160 -94 -70 -93
0 0 0 0 0 0 0 0 0 0 -104 -151 -91 -204 -205 -37 -145 -250 -141 0 0 -304 -210 -132 -124 -168 -219 -195 -180 -211 -161 -88 -29 -31 -63 -114 -110 -69 -67 -59 -37 -123 -108 -87
0 0 0 0 0 0 0 0 -4 -32 -43 -132 -118 -126 0 -270 -163 -4 -232 0 0 0 -22 -90 -95 -204 -242 -199 -138 -127 -143 -75 -15 -7 -17 -42 -55 -81 -103 -99 -106 -94 -86 -81
0 0 0 0 0 0 0 0 0 -39 0 -67 -152 -42 -161 -193 0 0 -199 -159 -252 -138 -113 -120 -174 -175 -173 -136 -95 -71 -108 -74 -32 -29 -12 -43 -62 -65 -123 -100 -48 -60 -60 -59
0 0 0 0 0 0 0 0 -28 0 0 -45 -39 -88 -95 0 0 0 -195 -141 -134 -135 -153 -170 0 -157 -162 -120 -35 -35 -54 -45 -4 -2 0 -25 -45 -55 -36 -49 -133 -67 -36 -72
0 0 0 0 0 0 0 0 -25 0 0 -49 -86 -30 0 0 0 0 0 0 -99 -104 0 0 0 -162 -34 -129 -38 -2 -16 -16 -7 -7 -7 -13 -9 -11 -4 -11 -78 -134 -71 -60
0 0 0 0 0 0 0 -57 -43 -13 -64 -73 -6 0 0 0 0 0 0 -48 -86 0 0 0 -121 -153 -87 -59 -16 -18 -22 -53 -52 -37 -39 -74 -81 -36 -102 -35 0 -16 -60 -38
0 0 0 0 0 0 -67 -56 0 0 0 0 0 0 0 0 0 0 0 -190 -107 0 0 0 -135 -126 -105 -15 -10 -70 -13 -83 -75 -47 -44 -50 -84 0 0 -17 -14 -21 -20 -14
0 0 0 0 0 0 0 0 0 0 -132 -162 -244 -171 -158 -121 0 0 -4 -123 -225 0 0 0 -104 -108 -56 -2 -21 -46 -22 -60 -56 -58 -90 -85 -37 0 -9 -4 -2 -1 0 0
0 0 0 0 -2 0 0 -170 0 0 -196 -145 0 -57 0 0 0 0 0 -18 -114 0 0 0 -30 -83 -30 -5 -3 -43 -70 -93 -142 -117 -122 -74 -21 0 -1 0 -1 -1 0 0
Wind_Speed
nan nan nan nan 8 nan nan nan nan 6 5 4 nan nan nan nan nan nan nan nan nan 12 6 9 4 4 3 nan nan nan 9 7 6 9 8 nan 12 15 18 17 14 nan nan 14
nan nan nan nan nan nan nan nan nan 6 3 8 nan nan nan nan nan nan nan nan nan 8 nan nan 4 5 5 8 nan nan 9 11 6 10 10 12 11 12 11 17 9 18 14 nan
nan nan nan nan nan nan nan nan nan nan 7 5 nan nan nan nan nan nan nan nan nan nan nan 1 3 6 3 9 6 nan 9 7 10 7 9 13 11 14 14 16 16 20 14 12
nan nan nan nan nan nan nan 3 11 8 13 nan 7 nan nan nan nan nan nan nan nan nan nan nan nan 2 4 12 5 nan 6 5 8 6 7 6 7 13 11 12 18 13 13 14
nan nan nan nan nan nan nan 14 5 3 10 nan 15 nan nan nan nan nan nan nan nan nan nan nan nan nan nan 5 4 7 7 6 4 5 3 5 7 13 10 12 12 11 12 13
nan nan nan nan nan nan nan nan 14 nan 6 nan nan 14 nan nan nan nan nan nan nan nan nan nan nan nan nan nan 4 6 8 9 6 5 6 5 6 6 9 11 11 11 12 13
nan nan nan nan nan nan nan nan nan nan nan nan nan 11 nan nan nan 9 5 nan nan nan 8 nan nan nan nan 8 6 6 8 9 9 8 9 8 8 6 6 7 11 11 13 12
nan nan nan nan nan nan nan nan nan nan nan nan nan nan nan nan 4 17 nan nan nan nan nan 18 9 nan 4 2 3 7 7 8 8 10 10 11 11 11 10 8 9 10 10 12
nan nan nan nan nan nan nan nan nan nan nan nan nan nan nan 7 6 nan 22 18 nan nan nan 22 18 12 7 4 4 6 10 8 9 8 11 12 13 11 10 9 9 9 10 10
nan nan nan nan nan nan nan nan nan nan nan nan nan nan nan nan nan 9 nan nan nan nan nan nan 11 15 14 8 9 9 11 7 7 9 10 12 12 12 12 11 9 7 5 5
nan nan nan nan nan nan nan nan nan nan nan nan nan nan nan nan nan nan nan nan nan nan nan nan nan 15 25 21 14 11 11 12 12 11 12 12 11 13 15 13 11 11 11 8
nan nan nan nan nan nan nan nan nan nan nan nan nan nan nan nan nan nan 14 14 14 nan nan nan nan nan 23 20 16 16 15 14 14 16 14 12 13 12 13 13 11 9 9 10
nan nan nan nan nan nan nan nan nan nan nan nan nan nan nan nan nan nan nan 9 6 19 nan nan nan nan nan 22 19 17 17 14 11 14 14 13 14 13 12 14 14 14 14 11
nan nan nan nan nan nan nan nan nan nan nan nan nan nan nan nan nan nan 9 13 nan nan 16 14 nan nan nan nan 20 14 11 16 14 19 14 10 13 14 15 16 14 13 14 14
nan nan nan nan nan nan nan nan nan nan nan nan nan nan nan nan nan nan nan 11 nan nan nan nan 8 19 28 28 26 nan 25 22 20 22 20 16 19 20 22 20 16 17 16 14
nan nan nan nan nan nan nan nan nan nan nan nan nan nan nan nan nan nan nan 15 14 nan nan 15 18 17 21 15 24 31 nan 27 24 15 13 12 22 22 22 23 21 20 19 17
nan nan nan nan nan nan nan nan nan nan nan nan nan nan nan nan nan nan nan nan nan 19 19 18 18 18 17 18 18 25 30 32 23 19 17 20 23 23 22 21 23 20 21 23
nan nan nan nan nan nan nan nan nan nan nan nan nan nan nan nan nan nan nan nan nan nan 21 23 26 nan nan nan 20 23 24 26 27 28 32 31 28 27 29 26 24 23 24 23
nan nan nan nan nan nan nan nan nan nan nan nan nan nan nan nan nan nan nan nan nan nan nan 25 nan nan nan 20 18 26 28 30 30 34 34 36 36 36 35 30 27 25 24 26
nan nan nan nan nan nan nan nan nan nan nan nan nan nan nan nan nan nan nan nan 20 18 16 23 nan nan nan 25 23 23 27 31 37 37 38 40 38 43 41 35 34 35 32 30
nan nan nan nan nan nan nan nan nan nan nan nan nan nan nan nan nan nan 20 18 17 18 nan nan nan nan nan 26 20 17 21 23 35 39 38 36 41 nan nan nan 44 42 44 41
nan nan nan nan nan nan nan nan nan nan nan nan nan nan nan nan nan nan nan nan nan nan nan nan nan nan 34 31 26 24 21 26 27 35 nan 39 38 41 nan nan nan nan nan 45
nan nan nan nan nan nan nan nan nan nan nan nan nan nan nan nan nan nan nan nan nan nan nan nan nan nan 34 35 30 29 28 25 26 32 nan nan nan nan nan nan nan nan nan nan
nan nan nan nan nan nan nan nan nan nan nan nan nan nan nan nan nan nan nan nan nan nan nan nan nan nan 31 32 36 34 30 28 30 28 28 nan nan nan nan nan nan nan nan nan
nan nan nan nan nan nan nan nan nan nan nan nan nan nan nan nan nan nan nan nan nan nan nan nan nan 28 29 30 31 34 35 33 31 30 nan nan nan nan nan nan nan nan nan nan
nan nan nan nan nan nan nan nan nan nan nan nan nan nan nan nan nan nan nan nan nan nan nan nan nan 17 23 24 28 34 33 33 nan nan nan nan nan nan nan nan nan nan nan nan
Wind_Direction
nan nan nan nan 251 nan nan nan nan 265 286 256 nan nan nan nan nan nan nan nan nan 56 106 80 37 29 52 nan nan nan 118 120 167 151 136 nan 125 143 152 153 129 nan nan 169
nan nan nan nan nan nan nan nan nan 204 272 211 nan nan nan nan nan nan nan nan nan 157 nan nan 55 35 50 77 nan nan 124 138 156 156 134 142 130 152 156 154 131 154 150 nan
nan nan nan nan nan nan nan nan nan nan 194 155 nan nan nan nan nan nan nan nan nan nan nan 6 34 15 62 74 60 nan 144 156 154 171 163 173 183 170 162 161 164 160 159 163
nan nan nan nan nan nan nan 305 243 227 214 nan 215 nan nan nan nan nan nan nan nan nan nan nan nan 174 48 76 113 nan 183 160 155 180 184 171 150 160 141 147 156 152 176 172
nan nan nan nan nan nan nan 269 281 164 225 nan 248 nan nan nan nan nan nan nan nan nan nan nan nan nan nan 80 87 141 182 184 172 152 172 180 162 166 172 166 165 177 175 174
nan nan nan nan nan nan nan nan 246 nan 220 nan nan 231 nan nan nan nan nan nan nan nan nan nan nan nan nan nan 192 163 176 174 178 173 190 195 174 188 180 169 166 177 181 181
nan nan nan nan nan nan nan nan nan nan nan nan nan 192 nan nan nan 260 198 nan nan nan 225 nan nan nan nan 274 244 193 173 169 178 185 194 199 199 178 164 168 170 180 192 189
nan nan nan nan nan nan nan nan nan nan nan nan nan nan nan nan 298 229 nan nan nan nan nan 252 292 nan 197 163 230 255 194 153 184 181 191 189 195 192 169 168 172 174 191 191
nan nan nan nan nan nan nan nan nan nan nan nan nan nan nan 289 338 nan 222 248 nan nan nan 276 263 261 220 206 214 254 245 167 180 175 193 185 189 192 180 172 180 178 181 185
nan nan nan nan nan nan nan nan nan nan nan nan nan nan nan nan nan 296 nan nan nan nan nan nan 283 247 219 226 229 224 230 196 184 180 191 193 186 193 190 194 175 165 191 184
nan nan nan nan nan nan nan nan nan nan nan nan nan nan nan nan nan nan nan nan nan nan nan nan nan 275 232 236 215 221 222 220 201 196 199 190 192 193 203 202 191 178 189 199
nan nan nan nan nan nan nan nan nan nan nan nan nan nan nan nan nan nan 297 305 288 nan nan nan nan nan 217 233 227 211 234 217 212 199 199 209 201 205 226 230 218 222 220 218
nan nan nan nan nan nan nan nan nan nan nan nan nan nan nan nan nan nan nan 302 277 246 nan nan nan nan nan 231 263 272 242 241 223 222 212 212 213 210 212 234 233 235 237 234
nan nan nan nan nan nan nan nan nan nan nan nan nan nan nan nan nan nan 334 283 nan nan 247 248 nan nan nan nan 245 234 229 253 249 229 226 233 239 232 221 221 239 235 233 236
nan nan nan nan nan nan nan nan nan nan nan nan nan nan nan nan nan nan nan 263 nan nan nan nan 236 222 209 227 227 nan 216 228 234 273 227 272 253 240 238 232 228 239 243 238
nan nan nan nan nan nan nan nan nan nan nan nan nan nan nan nan nan nan nan 260 236 nan nan 261 277 275 255 241 234 233 nan 239 247 250 273 234 243 245 251 246 234 229 241 242
nan nan nan nan nan nan nan nan nan nan nan nan nan nan nan nan nan nan nan nan nan 240 235 232 229 249 265 268 273 236 241 243 248 236 229 233 248 252 253 253 255 248 242 244
nan nan nan nan nan nan nan nan nan nan nan nan nan nan nan nan nan nan nan nan nan nan 234 230 222 nan nan nan 250 254 249 247 242 241 238 248 247 254 250 248 252 246 250 252
nan nan nan nan nan nan nan nan nan nan nan nan nan nan nan nan nan nan nan nan nan nan nan 233 nan nan nan 238 254 254 255 253 254 252 250 252 250 252 248 253 252 252 246 250
nan nan nan nan nan nan nan nan nan nan nan nan nan nan nan nan nan nan nan nan 285 286 259 234 nan nan nan 226 243 248 258 254 257 264 260 251 243 245 250 255 253 253 246 244
nan nan nan nan nan nan nan nan nan nan nan nan nan nan nan nan nan nan 285 288 283 277 nan nan nan nan nan 215 224 241 254 265 264 266 264 259 252 nan nan nan 247 245 257 254
nan nan nan nan nan nan nan nan nan nan nan nan nan nan nan nan nan nan nan nan nan nan nan nan nan nan 225 227 226 240 252 253 268 268 nan 258 260 252 nan nan nan nan nan 256
nan nan nan nan nan nan nan nan nan nan nan nan nan nan nan nan nan nan nan nan nan nan nan nan nan nan 232 233 232 241 251 261 257 252 nan nan nan nan nan nan nan nan nan nan
nan nan nan nan nan nan nan nan nan nan nan nan nan nan nan nan nan nan nan nan nan nan nan nan nan nan 224 230 237 236 244 259 262 254 263 nan nan nan nan nan nan nan nan nan
nan nan nan nan nan nan nan nan nan nan nan nan nan nan nan nan nan nan nan nan nan nan nan nan nan 235 231 231 234 237 244 256 257 255 nan nan nan nan nan nan nan nan nan nan
nan nan nan nan nan nan nan nan nan nan nan nan nan nan nan nan nan nan nan nan nan nan nan nan nan 249 238 236 232 234 237 241 nan nan nan nan nan nan nan nan nan nan nan nan